Simultaneous Nadir Overpasses (SNOs) Predictions

Prediction of SNOs between FY3D and NOAA-19 Satellite Orbit:

Table of predicted SNOs for the next 14.0 days since TLE Epoch: 3/27/2021
Index Date (FY3D) Time (FY3D) Lat,Lon (FY3D) SZA (FY3D ) Date (NOAA-19) Time (NOAA-19) Lat,Lon (NOAA-19) SZA (NOAA-19 ) Distance(km) Time Diff (sec)
1 03/29/2021 06:38:31 -78.68,-125.89 103.56 03/29/2021 06:37:21 -78.67,-125.79 103.55 2.43 70
2 03/29/2021 07:29:14 78.67, 41.51 76.41 03/29/2021 07:28:14 78.69, 41.56 76.44 2.06 60
3 03/29/2021 08:19:59 -78.68,-151.27 103.59 03/29/2021 08:19:20 -78.69,-151.19 103.58 1.74 39
4 03/29/2021 09:10:43 78.67, 16.13 76.38 03/29/2021 09:10:14 78.70, 16.17 76.42 3.21 29
5 03/29/2021 10:01:28 -78.69,-176.64 103.62 03/29/2021 10:01:20 -78.70,-176.59 103.60 2.19 8
6 03/29/2021 10:52:13 78.71, -9.48 76.41 03/29/2021 10:52:15 78.68, -9.48 76.38 3.39 2
7 03/29/2021 11:42:57 -78.69, 157.98 103.64 03/29/2021 11:43:20 -78.72, 158.01 103.63 3.34 23
8 03/29/2021 12:33:42 78.71, -34.86 76.38 03/29/2021 12:34:15 78.69, -34.88 76.36 2.01 33
9 03/29/2021 13:24:27 -78.72, 132.37 103.61 03/29/2021 13:25:21 -78.70, 132.37 103.66 3.21 54
10 03/29/2021 14:15:11 78.71, -60.23 76.36 03/29/2021 14:16:15 78.71, -60.28 76.33 1.09 64



Historial Predications of SNOs between FY3D and NOAA-19
